Flag for Germany Weather past 2 weeks in Riesa, Saxony, Germany

Now
54 °F

Overcast.


Feels Like: 52 °F
Forecast: 56 / 81 °F
Wind: 7 mph from South

Location: Dresden-Klotzsche

Current Time: May 4, 2015 at 4:15:06 AM

Latest Report: May 4, 2015 at 3:00 AM


Visibility: 19 mi

Pressure: 29.72 "Hg

Humidity: 94%

Dew point: 52 °F

Location of RiesaLocation

Historic Weather in Riesa — Graph

°F

Riesa temperature yesterday

Maximum temperature yesterday: 65 °F (at 3:00 PM)
Minimum temperature yesterday: 42 °F (at 3:00 AM)
Average temperature yesterday: 55 °F

Past Weeks' High & Low Weather Summary

 TemperatureHumidityPressure
High71 °F (Apr 27, 2:00 PM)100% (Apr 27, 8:00 PM)30.34 "Hg (Apr 27, 8:00 PM)
Low33 °F (Apr 19, 6:00 AM)24% (Apr 21, 4:00 PM)29.50 "Hg (Apr 27, 4:00 PM)
Average51 °F66%29.98 "Hg
* Reported Apr 19 3:00 AM — May 4 3:00 AM, Riesa, Weather by CustomWeather, © 2015

Note: Actual official high and low records may vary slightly from our data, if they occured in-between our weather recording intervals... More about our weather records

Advertising

Riesa weather history for previous 24 hours

 ConditionsComfort  
Time TempWeatherWind HumidityBarometerVisibility
3:00 AM
Mon, May 4
54 °FOvercast.7 mph94%29.72 "Hg19 mi
2:00 AM54 °FOvercast.8 mph93%29.72 "Hg19 mi
1:00 AM54 °FLight rain. Overcast.8 mph94%29.73 "Hg9 mi
12:00 AM54 °FLight rain. Low clouds.8 mph95%29.72 "Hg6 mi
10:00 PM
Sun, May 3
56 °FLight rain. Overcast.7 mph94%29.75 "Hg8 mi
9:00 PM59 °FLight rain. Overcast.9 mph74%29.73 "Hg16 mi
8:00 PM61 °FOvercast.7 mph64%29.73 "Hg25 mi
7:00 PM62 °FOvercast.7 mph59%29.74 "Hg25 mi
6:00 PM62 °FOvercast.7 mph57%29.75 "Hg25 mi
4:00 PM64 °FOvercast.8 mph50%29.78 "Hg19 mi
3:00 PM65 °FOvercast.7 mph48%29.78 "Hg19 mi
2:00 PM64 °FOvercast.6 mph49%29.80 "Hg17 mi
1:00 PM64 °FPartly sunny.6 mph46%29.79 "Hg22 mi
12:00 PM62 °FScattered clouds.7 mph48%29.82 "Hg25 mi
11:00 AM60 °FPartly sunny.6 mph52%29.84 "Hg22 mi
10:00 AM58 °FScattered clouds.6 mph56%29.85 "Hg16 mi
9:00 AM54 °FPassing clouds.6 mph64%29.86 "Hg16 mi
8:00 AM50 °FScattered clouds.6 mph68%29.86 "Hg16 mi
7:00 AM45 °FScattered clouds.5 mph68%29.88 "Hg22 mi
6:00 AM44 °FScattered clouds.6 mph66%29.88 "Hg25 mi
4:00 AM43 °FPassing clouds.5 mph69%29.90 "Hg25 mi
Weather by CustomWeather, © 2015

See weather overviewHow to use our weather pages